| time (UTC) | temp F | wind direction | speed MPH | gust MPH | rain 1hr in | rain 24hr in | rain mn in | humidity % | barometer mb |
| 20260906134516 | 75 | 147 | 0.0 | 0.0 | 0.00 | 0.00 | 0.00 | 87 | 1014.3 |
| 20260906133031 | 74 | 147 | 0.0 | 0.0 | 0.00 | 0.00 | 0.00 | 88 | 1014.3 |
| 20260906131538 | 73 | 147 | 0.0 | 0.0 | 0.00 | 0.00 | 0.00 | 90 | 1014.5 |
| 20260906130035 | 72 | 147 | 0.0 | 0.0 | 0.00 | 0.00 | 0.00 | 90 | 1014.3 |
| 20260906124521 | 72 | 147 | 0.0 | 5.0 | 0.00 | 0.00 | 0.00 | 90 | 1013.8 |
| 20260906123030 | 71 | 124 | 0.0 | 3.0 | 0.00 | 0.00 | 0.00 | 90 | 1013.4 |
| 20260906121537 | 71 | 127 | 1.0 | 4.0 | 0.00 | 0.00 | 0.00 | 90 | 1013.2 |
| 20260906120032 | 71 | 134 | 0.0 | 4.0 | 0.00 | 0.00 | 0.00 | 90 | 1013.2 |
| 20260906114530 | 71 | 142 | 0.0 | 3.0 | 0.00 | 0.00 | 0.00 | 89 | 1013.1 |
| 20260906113004 | 71 | 147 | 0.0 | 0.0 | 0.00 | 0.00 | 0.00 | 89 | 1013.2 |
| 20260906111504 | 71 | 146 | 0.0 | 0.0 | 0.00 | 0.00 | 0.00 | 88 | 1013.4 |
| 20260906110004 | 71 | 146 | 0.0 | 0.0 | 0.00 | 0.01 | 0.00 | 88 | 1013.4 |
| 20260906104504 | 72 | 146 | 0.0 | 2.0 | 0.00 | 0.01 | 0.00 | 87 | 1013.4 |
| 20260906103011 | 72 | 150 | 1.0 | 3.0 | 0.00 | 0.01 | 0.00 | 87 | 1013.6 |
| 20260906101504 | 72 | 153 | 0.0 | 0.0 | 0.00 | 0.01 | 0.00 | 86 | 1013.8 |
| 20260906100004 | 72 | 153 | 0.0 | 2.0 | 0.00 | 0.01 | 0.00 | 86 | 1013.9 |
| 20260906094503 | 72 | 153 | 0.0 | 0.0 | 0.00 | 0.01 | 0.00 | 86 | 1013.9 |
| 20260906093003 | 72 | 153 | 0.0 | 0.0 | 0.00 | 0.01 | 0.00 | 86 | 1013.9 |
| 20260906091503 | 72 | 153 | 0.0 | 0.0 | 0.00 | 0.02 | 0.00 | 86 | 1013.9 |
| 20260906090006 | 72 | 153 | 0.0 | 0.0 | 0.00 | 0.02 | 0.00 | 85 | 1013.9 |
| 20260906084504 | 72 | 153 | 0.0 | 0.0 | 0.00 | 0.02 | 0.00 | 84 | 1013.9 |
| 20260906083006 | 72 | 153 | 0.0 | 0.0 | 0.00 | 0.03 | 0.00 | 84 | 1013.9 |
| 20260906081513 | 73 | 153 | 0.0 | 0.0 | 0.00 | 0.03 | 0.00 | 83 | 1013.8 |
| 20260906080007 | 73 | 153 | 0.0 | 1.0 | 0.00 | 0.03 | 0.00 | 83 | 1013.4 |
| 20260906074507 | 73 | 169 | 0.0 | 2.0 | 0.00 | 0.03 | 0.00 | 82 | 1013.4 |
| 20260906073008 | 73 | 223 | 0.0 | 0.0 | 0.00 | 0.03 | 0.00 | 82 | 1013.5 |
| 20260906071524 | 74 | 223 | 0.0 | 0.0 | 0.00 | 0.03 | 0.00 | 81 | 1013.2 |
| 20260906070012 | 74 | 223 | 0.0 | 0.0 | 0.00 | 0.03 | 0.00 | 81 | 1013.3 |
| 20260906064512 | 74 | 223 | 0.0 | 0.0 | 0.00 | 0.03 | 0.00 | 81 | 1013.3 |
| 20260906063011 | 74 | 227 | 0.0 | 0.0 | 0.00 | 0.03 | 0.00 | 80 | 1013.3 |
| 20260906061514 | 74 | 227 | 0.0 | 3.0 | 0.00 | 0.03 | 0.00 | 79 | 1013.3 |
| 20260906060022 | 75 | 142 | 0.0 | 0.0 | 0.00 | 0.03 | 0.00 | 78 | 1013.2 |
| 20260906054516 | 75 | 142 | 0.0 | 0.0 | 0.00 | 0.03 | 0.00 | 77 | 1013.1 |
| 20260906053010 | 75 | 142 | 1.0 | 8.0 | 0.00 | 0.03 | 0.00 | 76 | 1013.1 |
| 20260906051517 | 76 | 146 | 0.0 | 5.0 | 0.00 | 0.03 | 0.00 | 76 | 1013.2 |
| 20260906050018 | 76 | 140 | 1.0 | 5.0 | 0.00 | 0.03 | 0.00 | 76 | 1013.2 |
| 20260906044521 | 76 | 130 | 0.0 | 6.0 | 0.00 | 0.03 | 0.03 | 76 | 1013.2 |
| 20260906043024 | 76 | 130 | 1.0 | 6.0 | 0.00 | 0.03 | 0.03 | 75 | 1013.3 |
| 20260906041503 | 77 | 112 | 1.0 | 4.0 | 0.00 | 0.03 | 0.03 | 75 | 1013.1 |
| 20260906040004 | 78 | 120 | 1.0 | 7.0 | 0.00 | 0.03 | 0.03 | 73 | 1013.1 |
| 20260906034507 | 79 | 53 | 1.0 | 6.0 | 0.00 | 0.03 | 0.03 | 71 | 1013.0 |
| 20260906033013 | 78 | 80 | 0.0 | 5.0 | 0.00 | 0.03 | 0.03 | 72 | 1012.4 |
| 20260906031515 | 78 | 112 | 0.0 | 6.0 | 0.00 | 0.03 | 0.03 | 74 | 1012.4 |
| 20260906030004 | 79 | 150 | 1.0 | 5.0 | 0.00 | 0.03 | 0.03 | 74 | 1012.9 |
| 20260906024509 | 79 | 159 | 0.0 | 0.0 | 0.00 | 0.03 | 0.03 | 72 | 1013.1 |
| 20260906023013 | 80 | 159 | 0.0 | 0.0 | 0.00 | 0.03 | 0.03 | 71 | 1013.0 |
| 20260906021517 | 80 | 159 | 0.0 | 0.0 | 0.00 | 0.03 | 0.03 | 70 | 1013.3 |
| 20260906020004 | 80 | 158 | 0.0 | 0.0 | 0.00 | 0.03 | 0.03 | 70 | 1013.0 |
| 20260906014508 | 81 | 158 | 0.0 | 0.0 | 0.00 | 0.03 | 0.03 | 69 | 1012.6 |
| 20260906013016 | 81 | 158 | 0.0 | 0.0 | 0.00 | 0.03 | 0.03 | 67 | 1012.8 |
| 20260906011516 | 82 | 158 | 0.0 | 0.0 | 0.00 | 0.03 | 0.03 | 65 | 1012.9 |
| 20260906010005 | 83 | 158 | 0.0 | 0.0 | 0.00 | 0.03 | 0.03 | 63 | 1013.1 |
| 20260906004512 | 83 | 158 | 0.0 | 3.0 | 0.00 | 0.03 | 0.03 | 63 | 1013.5 |
| 20260906003018 | 84 | 137 | 0.0 | 0.0 | 0.00 | 0.03 | 0.03 | 61 | 1013.4 |
| 20260906001540 | 84 | 137 | 0.0 | 0.0 | 0.00 | 0.03 | 0.03 | 59 | 1013.2 |
| 20260906000005 | 85 | 137 | 0.0 | 0.0 | 0.00 | 0.03 | 0.03 | 58 | 1013.0 |
| 20260905234514 | 86 | 137 | 0.0 | 3.0 | 0.00 | 0.03 | 0.03 | 56 | 1012.9 |
| 20260905233024 | 87 | 136 | 0.0 | 3.0 | 0.00 | 0.03 | 0.03 | 54 | 1012.7 |
| 20260905231528 | 88 | 147 | 0.0 | 4.0 | 0.00 | 0.03 | 0.03 | 52 | 1012.3 |
| 20260905230008 | 89 | 136 | 2.0 | 7.0 | 0.00 | 0.03 | 0.03 | 50 | 1011.8 |
| 20260905224514 | 89 | 150 | 4.0 | 12.0 | 0.00 | 0.03 | 0.03 | 49 | 1011.3 |
| 20260905223041 | 90 | 132 | 5.0 | 10.0 | 0.00 | 0.03 | 0.03 | 49 | 1011.2 |
| 20260905221529 | 90 | 161 | 2.0 | 10.0 | 0.00 | 0.03 | 0.03 | 49 | 1011.4 |
| 20260905220028 | 90 | 157 | 3.0 | 10.0 | 0.00 | 0.03 | 0.03 | 50 | 1011.6 |
| 20260905214518 | 90 | 143 | 2.0 | 12.0 | 0.00 | 0.03 | 0.03 | 49 | 1011.6 |
| 20260905213028 | 90 | 136 | 4.0 | 10.0 | 0.00 | 0.03 | 0.03 | 50 | 1011.7 |
| 20260905211527 | 91 | 61 | 3.0 | 9.0 | 0.00 | 0.03 | 0.03 | 50 | 1011.8 |
| 20260905210043 | 91 | 59 | 5.0 | 11.0 | 0.00 | 0.03 | 0.03 | 49 | 1011.9 |
| 20260905204518 | 91 | 86 | 1.0 | 6.0 | 0.00 | 0.03 | 0.03 | 52 | 1011.9 |
| 20260905203026 | 91 | 109 | 1.0 | 11.0 | 0.00 | 0.03 | 0.03 | 51 | 1012.0 |
| 20260905201531 | 90 | 142 | 2.0 | 7.0 | 0.00 | 0.03 | 0.03 | 53 | 1012.1 |
| 20260905200054 | 89 | 166 | 3.0 | 9.0 | 0.00 | 0.03 | 0.03 | 52 | 1012.0 |
| 20260905194518 | 89 | 116 | 2.0 | 9.0 | 0.00 | 0.03 | 0.03 | 54 | 1012.0 |
| 20260905193014 | 88 | 155 | 2.0 | 10.0 | 0.00 | 0.03 | 0.03 | 53 | 1012.0 |
| 20260905191506 | 88 | 126 | 2.0 | 9.0 | 0.00 | 0.03 | 0.03 | 55 | 1012.1 |
| 20260905190012 | 87 | 128 | 3.0 | 8.0 | 0.00 | 0.03 | 0.03 | 55 | 1012.4 |
| 20260905184504 | 87 | 83 | 1.0 | 8.0 | 0.00 | 0.03 | 0.03 | 56 | 1012.6 |
| 20260905183005 | 86 | 123 | 2.0 | 7.0 | 0.00 | 0.03 | 0.03 | 55 | 1012.5 |
| 20260905181508 | 86 | 132 | 0.0 | 7.0 | 0.00 | 0.03 | 0.03 | 56 | 1012.4 |
| 20260905180018 | 86 | 219 | 0.0 | 8.0 | 0.00 | 0.03 | 0.03 | 61 | 1012.6 |
| 20260905174504 | 85 | 158 | 0.0 | 9.0 | 0.00 | 0.03 | 0.03 | 54 | 1012.8 |
| 20260905173005 | 85 | 324 | 1.0 | 9.0 | 0.00 | 0.03 | 0.03 | 54 | 1012.9 |
| 20260905171508 | 84 | 231 | 0.0 | 9.0 | 0.00 | 0.03 | 0.03 | 55 | 1013.0 |
| 20260905170018 | 84 | 238 | 1.0 | 7.0 | 0.00 | 0.03 | 0.03 | 56 | 1013.2 |
| 20260905164503 | 84 | 252 | 2.0 | 8.0 | 0.00 | 0.03 | 0.03 | 55 | 1013.3 |
| 20260905163004 | 84 | 138 | 2.0 | 9.0 | 0.00 | 0.03 | 0.03 | 57 | 1013.3 |
| 20260905161514 | 83 | 140 | 1.0 | 8.0 | 0.00 | 0.03 | 0.03 | 60 | 1013.5 |
| 20260905160023 | 83 | 148 | 3.0 | 10.0 | 0.00 | 0.03 | 0.03 | 64 | 1013.7 |
| 20260905154528 | 82 | 118 | 1.0 | 7.0 | 0.00 | 0.03 | 0.03 | 65 | 1013.7 |
| 20260905153014 | 81 | 133 | 1.0 | 5.0 | 0.00 | 0.03 | 0.03 | 67 | 1013.7 |
| 20260905151515 | 80 | 121 | 1.0 | 6.0 | 0.00 | 0.03 | 0.03 | 67 | 1013.6 |
| 20260905150025 | 80 | 121 | 1.0 | 8.0 | 0.00 | 0.03 | 0.03 | 68 | 1013.6 |
| 20260905144535 | 79 | 142 | 0.0 | 6.0 | 0.00 | 0.03 | 0.03 | 70 | 1013.5 |
| 20260905143009 | 77 | 129 | 0.0 | 6.0 | 0.00 | 0.03 | 0.03 | 75 | 1013.4 |
| 20260905141516 | 76 | 115 | 0.0 | 4.0 | 0.00 | 0.03 | 0.03 | 76 | 1013.4 |
| 20260905140026 | 74 | 139 | 0.0 | 4.0 | 0.00 | 0.03 | 0.03 | 78 | 1013.2 |